Wind_Speed
18 22 25 28 20 19 19 18 17 11 19 23 19 5 11 18 26 29 31 33 35 34 30 31 26 25 18 14 13 14 9 16 15 12 10 13 12 8 6 10 10 8 7 6
16 23 17 14 14 18 20 21 18 18 20 7 14 16 14 22 30 32 35 36 33 33 30 31 26 24 22 11 13 16 9 13 15 13 13 17 13 10 10 8 9 10 7 6
24 7 17 20 18 21 22 22 19 25 23 13 6 12 14 21 27 33 31 36 35 34 31 30 27 26 25 15 14 16 11 13 15 15 15 15 11 9 5 3 7 9 9 8
19 18 16 18 23 20 23 18 18 23 23 21 22 11 22 27 30 25 31 34 37 37 34 30 30 29 24 19 19 15 13 14 17 18 17 14 11 11 11 11 9 8 8 8
23 19 20 21 21 19 22 19 16 19 18 22 29 11 30 29 27 25 26 21 31 36 35 31 33 26 27 17 19 16 14 17 19 19 18 15 17 14 10 7 8 7 7 7
19 17 16 17 19 17 16 20 20 18 15 14 25 35 19 39 33 28 26 21 22 32 29 29 32 24 20 25 23 21 17 19 23 23 20 16 16 11 10 9 8 7 8 7
20 21 20 19 18 18 23 14 9 5 5 4 24 16 10 25 33 27 18 15 28 32 28 24 30 32 27 24 27 18 14 19 23 24 21 20 16 13 12 13 12 9 6 9
16 15 19 19 22 18 26 19 14 4 3 10 22 9 11 13 30 20 15 16 26 23 28 26 27 28 30 27 22 19 13 17 22 23 21 19 18 18 14 12 11 8 8 7
8 20 18 22 18 20 22 25 25 18 21 13 10 22 25 22 28 28 29 29 29 33 33 31 34 22 35 30 27 20 16 14 19 21 21 21 19 17 17 16 13 14 8 8
2 16 17 13 20 24 27 19 22 19 2 3 13 19 16 25 30 29 26 27 30 30 34 26 34 24 34 36 30 20 20 10 16 19 20 21 19 18 17 18 14 14 12 10
1 4 10 17 28 27 19 16 15 9 7 6 4 5 11 27 26 24 29 30 32 31 25 27 34 26 24 34 35 28 29 22 17 21 20 20 18 17 15 15 15 13 14 13
4 5 9 8 9 22 14 9 22 13 8 3 6 6 8 17 21 19 26 27 31 29 25 27 28 15 21 32 33 35 36 27 24 26 25 21 20 19 17 17 17 17 15 12
3 0 6 5 8 11 14 19 14 16 15 14 14 8 17 19 17 14 18 22 19 19 20 22 23 25 18 25 22 27 38 31 31 27 29 25 23 19 18 16 15 14 15 12
6 1 6 9 6 10 10 11 18 18 17 6 15 19 22 23 24 22 18 23 19 16 15 18 23 22 18 26 26 26 20 23 33 31 28 26 25 23 20 17 17 17 16 16
3 4 8 1 11 10 18 17 20 20 17 0 20 19 26 25 21 21 17 17 14 13 12 11 14 18 17 21 20 19 15 7 26 37 25 29 29 25 23 23 20 19 19 17
3 6 5 16 10 8 18 13 14 21 9 6 18 17 13 13 13 14 13 12 11 11 10 8 12 15 19 23 28 19 16 14 14 21 17 28 32 21 28 30 24 23 23 19
2 5 3 4 7 14 13 10 12 13 8 15 15 17 16 10 13 15 16 14 12 12 11 12 10 12 15 18 20 20 21 21 12 13 13 19 23 23 19 16 14 23 25 24
4 4 3 6 8 3 16 15 5 10 11 4 15 20 15 16 10 11 12 11 12 12 12 10 9 8 9 11 11 11 11 16 22 21 16 12 19 12 20 20 25 22 25 26
10 9 5 3 7 12 11 12 11 2 4 6 22 22 26 26 18 15 12 10 12 12 11 10 10 10 9 9 8 8 9 9 10 14 21 28 24 28 30 28 27 26 27 26
8 8 14 11 3 5 8 15 13 5 13 12 23 23 25 23 20 18 18 18 14 11 11 12 14 12 12 12 12 13 14 11 11 12 12 15 23 27 31 33 37 31 27 29
4 5 7 11 6 4 8 12 9 13 13 24 25 25 21 20 24 22 24 26 22 15 16 17 18 18 19 18 18 18 18 16 15 16 16 16 16 18 23 28 29 29 30 31
2 4 6 10 7 7 8 9 11 14 13 22 23 27 28 25 24 27 32 30 26 24 19 21 20 20 20 21 22 24 24 24 24 23 22 21 20 21 21 21 22 25 27 28
6 2 5 1 6 6 12 13 12 15 19 22 28 29 32 31 27 28 33 30 26 26 25 25 25 28 26 25 25 24 26 26 27 28 29 29 29 29 29 27 27 27 28 29
8 9 11 13 8 9 8 14 17 18 19 21 23 29 33 32 33 33 34 29 30 31 31 27 26 26 25 24 24 26 27 26 27 28 30 31 33 34 35 36 36 36 34 33
11 10 9 13 14 12 7 12 15 19 22 19 22 25 22 24 27 27 28 23 23 24 26 23 22 21 21 20 20 20 21 22 23 25 26 28 30 32 34 36 39 42 43 44
16 12 17 21 16 14 13 17 20 23 19 21 22 22 21 24 26 25 24 20 17 21 24 20 19 18 17 17 17 17 17 18 19 21 23 25 27 29 31 33 34 36 41 45
Wind_Direction
179 209 209 190 191 207 218 221 239 212 199 187 198 171 166 171 172 190 179 184 184 192 200 198 212 219 225 227 215 224 195 173 181 187 189 162 157 173 160 141 133 158 161 144
207 218 199 192 203 226 240 254 263 212 224 205 228 208 193 199 191 195 185 191 192 199 202 207 204 229 223 228 216 226 223 182 182 184 191 177 180 159 161 144 116 146 143 138
208 221 185 199 221 227 243 253 246 203 191 187 216 214 191 177 178 192 200 199 197 200 200 215 214 223 232 228 200 224 213 200 188 196 195 191 188 176 172 164 136 134 137 148
230 201 222 213 224 227 242 236 253 209 167 168 197 217 196 187 199 198 205 208 207 203 212 210 216 224 231 230 212 220 199 207 197 205 208 193 167 195 176 177 163 147 142 147
227 231 219 224 228 222 234 235 255 168 198 213 200 207 202 197 202 201 196 201 211 208 216 212 220 234 232 235 230 213 213 209 208 208 217 209 196 205 180 178 148 147 147 150
233 225 228 222 225 221 230 235 256 239 222 243 250 201 185 195 198 192 196 201 216 212 214 220 215 222 235 236 233 228 237 217 211 204 211 216 216 206 204 189 183 162 160 145
230 238 226 215 224 229 224 243 251 225 172 186 231 256 171 198 199 198 207 279 223 217 215 215 219 224 227 235 237 214 237 211 210 206 204 210 217 197 180 203 192 172 182 157
231 233 222 211 220 224 222 231 232 162 166 232 240 160 154 181 194 193 223 233 207 208 220 214 217 232 237 239 234 230 237 213 213 213 205 212 208 197 210 188 220 192 194 175
272 235 225 212 214 205 215 237 231 268 226 235 133 121 124 139 164 187 192 184 201 198 218 208 208 221 224 232 236 223 233 221 216 217 208 211 214 208 202 213 200 199 201 213
56 253 246 224 215 218 218 240 243 244 209 191 139 147 167 159 172 184 187 195 201 209 211 216 211 216 213 227 222 241 224 257 228 221 214 213 214 218 210 216 222 218 194 204
144 301 304 203 207 211 218 232 235 259 283 180 129 28 152 180 198 198 196 199 207 215 212 209 212 199 231 217 220 221 215 214 220 222 220 217 216 218 220 219 224 228 221 218
305 310 263 247 164 207 218 240 245 241 269 346 84 105 186 197 206 224 213 204 204 215 222 221 221 213 247 221 212 224 213 210 212 211 212 219 222 220 217 209 216 227 223 224
222 255 341 277 236 226 264 250 263 233 258 256 159 160 221 206 215 220 230 224 212 215 225 229 223 235 235 214 229 220 227 217 226 217 217 212 217 220 219 224 221 227 242 230
202 358 353 251 327 359 326 296 246 236 267 97 184 187 218 223 219 231 235 229 222 217 221 227 228 218 236 228 213 226 232 238 212 216 218 217 218 214 219 218 234 236 237 250
144 353 190 334 253 306 321 317 243 244 265 103 163 189 218 227 227 233 220 217 212 214 216 210 211 214 214 214 211 215 216 240 240 243 256 225 226 224 220 221 221 238 238 241
144 16 323 258 296 285 310 337 227 242 270 140 160 159 203 202 191 182 169 169 186 205 214 209 216 213 216 213 206 228 232 248 237 230 239 231 243 213 229 207 222 229 235 238
241 289 45 315 267 282 296 330 31 60 104 144 167 189 185 184 188 188 193 185 191 180 180 180 186 201 209 212 221 231 244 238 232 215 246 259 232 245 245 257 237 234 239 242
305 318 260 293 311 241 250 283 303 68 98 155 179 169 156 172 184 208 206 204 206 207 204 195 198 189 185 204 215 222 236 236 229 223 228 249 246 260 243 232 235 248 247 241
233 251 290 250 234 279 275 265 257 288 194 195 174 165 171 181 204 219 220 208 209 212 222 217 219 221 215 226 239 240 250 255 251 240 243 240 245 227 238 246 254 248 253 250
204 241 235 250 290 216 255 245 239 174 158 193 186 185 190 197 203 221 239 243 243 240 235 239 245 243 245 248 245 249 253 251 251 256 251 242 240 245 246 251 258 257 254 254
194 222 243 248 275 277 233 234 226 186 189 192 192 194 193 196 210 230 241 251 252 246 242 243 247 250 251 253 256 257 257 257 253 252 255 260 253 249 250 253 255 254 252 250
117 231 237 239 257 232 185 206 196 192 184 187 190 203 212 211 211 223 243 247 247 253 253 256 259 263 262 260 257 256 256 256 257 258 256 256 257 257 257 257 259 260 261 260
231 216 217 275 236 231 232 212 213 206 216 209 214 213 216 222 222 229 242 246 253 258 259 263 272 274 271 267 263 260 256 255 255 255 258 258 258 259 258 258 259 260 259 262
261 269 261 233 243 277 255 241 252 243 230 235 237 236 237 240 243 245 251 254 256 260 266 270 268 267 268 267 266 264 263 262 259 257 256 256 256 256 257 258 258 259 261 262
257 247 260 260 244 226 218 259 246 248 239 223 242 248 236 233 237 247 256 257 259 262 263 263 265 264 263 262 262 263 265 265 263 263 262 262 261 259 257 256 255 256 256 257
248 255 252 241 231 234 247 252 265 269 257 243 243 245 237 232 237 247 256 259 256 260 262 263 263 263 267 268 270 270 270 269 268 269 269 269 269 268 267 264 260 260 258 255
Height
3142 3145 3145 3150 3153 3155 3159 3163 3164 3166 3169 3168 3170 3178 3176 3175 3182 3186 3189 3194 3197 3203 3207 3211 3211 3212 3216 3218 3220 3219 3221 3225 3227 3229 3231 3234 3235 3236 3238 3240 3239 3241 3242 3243
3141 3140 3145 3150 3153 3154 3155 3158 3163 3164 3168 3169 3173 3175 3178 3174 3178 3184 3187 3190 3194 3199 3205 3206 3207 3210 3213 3217 3219 3218 3222 3224 3227 3230 3230 3233 3234 3237 3239 3240 3240 3242 3242 3244
3137 3139 3143 3147 3151 3154 3154 3156 3160 3160 3163 3163 3177 3176 3172 3176 3178 3183 3186 3189 3192 3195 3200 3204 3206 3207 3210 3215 3217 3217 3222 3224 3226 3228 3229 3232 3235 3236 3237 3238 3240 3241 3243 3245
3137 3137 3143 3144 3147 3151 3151 3153 3156 3156 3157 3159 3166 3168 3169 3172 3174 3178 3181 3186 3190 3195 3199 3203 3204 3204 3208 3213 3216 3216 3219 3222 3225 3226 3228 3231 3234 3236 3237 3239 3240 3240 3242 3244
3134 3134 3138 3142 3143 3147 3148 3151 3154 3157 3159 3160 3160 3164 3160 3168 3174 3177 3181 3186 3190 3193 3197 3200 3201 3203 3207 3209 3213 3216 3218 3220 3223 3224 3226 3230 3232 3234 3236 3240 3240 3242 3243 3243
3132 3135 3136 3139 3142 3143 3147 3148 3150 3151 3155 3156 3154 3159 3159 3162 3165 3176 3178 3187 3191 3192 3194 3198 3200 3203 3206 3207 3211 3214 3216 3217 3220 3222 3224 3227 3231 3233 3236 3239 3240 3241 3243 3244
3129 3130 3134 3136 3139 3141 3143 3145 3148 3150 3152 3154 3151 3154 3155 3160 3170 3175 3176 3175 3186 3191 3192 3194 3196 3200 3204 3206 3209 3213 3213 3215 3218 3221 3224 3226 3230 3234 3236 3239 3240 3241 3243 3244
3127 3129 3129 3132 3135 3139 3139 3143 3145 3148 3151 3149 3150 3151 3153 3159 3166 3173 3179 3179 3183 3185 3188 3191 3195 3197 3201 3205 3206 3211 3213 3214 3218 3221 3224 3226 3228 3233 3236 3237 3239 3242 3243 3243
3125 3125 3128 3130 3133 3137 3139 3139 3141 3145 3144 3146 3148 3154 3156 3159 3162 3163 3164 3166 3171 3176 3180 3187 3193 3196 3199 3203 3205 3211 3214 3215 3218 3220 3223 3225 3228 3231 3234 3235 3238 3241 3240 3242
3123 3124 3122 3126 3132 3134 3135 3140 3140 3141 3145 3146 3150 3150 3151 3157 3156 3159 3160 3163 3165 3170 3177 3184 3188 3190 3193 3196 3201 3208 3214 3217 3219 3220 3223 3225 3227 3229 3232 3233 3237 3239 3239 3242
3122 3124 3123 3123 3125 3130 3134 3135 3136 3138 3140 3143 3149 3156 3156 3154 3156 3158 3158 3160 3164 3166 3173 3176 3182 3178 3194 3192 3195 3201 3207 3211 3216 3219 3222 3226 3227 3228 3229 3232 3234 3237 3239 3242
3122 3122 3120 3119 3121 3127 3129 3133 3135 3137 3140 3141 3147 3157 3156 3157 3156 3160 3160 3162 3166 3169 3173 3177 3181 3183 3184 3187 3194 3197 3186 3205 3209 3211 3215 3222 3225 3225 3228 3231 3234 3234 3236 3239
3123 3124 3124 3121 3124 3126 3128 3130 3131 3132 3138 3139 3148 3154 3152 3155 3157 3158 3161 3163 3166 3168 3170 3173 3177 3180 3180 3185 3188 3194 3199 3198 3204 3208 3211 3214 3218 3223 3227 3229 3232 3233 3233 3236
3124 3125 3128 3127 3127 3129 3129 3129 3129 3132 3135 3138 3141 3148 3149 3151 3153 3155 3158 3159 3163 3165 3166 3169 3173 3178 3179 3183 3187 3188 3191 3197 3197 3203 3207 3210 3214 3216 3222 3226 3230 3233 3234 3233
3125 3127 3129 3128 3129 3129 3129 3127 3126 3129 3132 3133 3140 3144 3145 3146 3149 3150 3154 3157 3160 3163 3164 3166 3169 3174 3178 3181 3183 3188 3194 3198 3197 3198 3200 3205 3208 3212 3215 3220 3222 3229 3233 3233
3125 3126 3125 3127 3128 3129 3129 3126 3125 3129 3127 3131 3136 3142 3144 3144 3148 3151 3152 3156 3159 3161 3163 3164 3168 3171 3175 3177 3180 3184 3188 3190 3186 3191 3195 3199 3204 3205 3210 3206 3216 3222 3227 3229
3126 3126 3127 3127 3129 3129 3131 3130 3130 3128 3128 3130 3134 3136 3141 3143 3146 3150 3151 3155 3157 3160 3162 3165 3168 3171 3173 3176 3179 3180 3182 3184 3185 3188 3192 3193 3198 3203 3204 3208 3206 3216 3221 3224
3124 3125 3127 3129 3129 3132 3129 3128 3131 3133 3133 3133 3134 3136 3141 3145 3148 3149 3153 3155 3157 3159 3162 3165 3167 3169 3171 3173 3175 3176 3178 3179 3182 3185 3187 3188 3194 3197 3202 3205 3208 3213 3214 3216
3123 3125 3126 3127 3129 3129 3127 3130 3132 3134 3135 3139 3139 3139 3141 3143 3149 3150 3151 3154 3156 3159 3162 3164 3165 3166 3168 3170 3173 3174 3175 3176 3178 3180 3182 3187 3190 3192 3194 3197 3201 3203 3204 3207
3121 3122 3125 3126 3126 3126 3127 3127 3130 3131 3134 3138 3139 3138 3139 3142 3144 3148 3149 3151 3155 3158 3160 3163 3164 3167 3168 3169 3170 3171 3172 3175 3176 3178 3180 3182 3184 3186 3187 3190 3192 3195 3197 3199
3120 3121 3122 3124 3126 3124 3124 3124 3127 3131 3138 3136 3136 3136 3137 3137 3142 3143 3145 3148 3151 3155 3155 3158 3160 3161 3163 3165 3166 3167 3168 3171 3173 3175 3176 3177 3179 3180 3182 3183 3185 3187 3189 3191
3120 3120 3121 3123 3124 3124 3121 3122 3126 3128 3131 3133 3133 3133 3133 3135 3137 3139 3138 3141 3146 3148 3151 3151 3153 3155 3158 3159 3160 3161 3163 3165 3166 3168 3170 3172 3173 3175 3176 3178 3179 3180 3181 3183
3120 3120 3120 3123 3121 3119 3119 3121 3123 3124 3128 3131 3132 3131 3131 3132 3134 3135 3135 3137 3139 3140 3142 3144 3148 3148 3149 3150 3152 3153 3155 3158 3159 3160 3162 3164 3165 3167 3168 3169 3171 3173 3174 3174
3117 3117 3118 3119 3119 3117 3118 3119 3121 3122 3124 3125 3128 3128 3128 3129 3129 3129 3129 3132 3134 3134 3135 3138 3139 3139 3140 3142 3143 3144 3146 3149 3150 3151 3152 3153 3155 3157 3158 3160 3162 3163 3164 3167
3115 3115 3115 3114 3115 3115 3115 3115 3116 3118 3118 3118 3119 3120 3123 3122 3122 3124 3123 3126 3128 3129 3128 3131 3131 3132 3133 3134 3135 3136 3137 3139 3141 3142 3143 3144 3145 3146 3148 3149 3150 3152 3154 3155
3110 3109 3109 3109 3110 3109 3111 3112 3111 3111 3113 3113 3114 3113 3116 3116 3117 3118 3118 3120 3123 3122 3121 3125 3125 3126 3127 3128 3128 3129 3130 3132 3133 3134 3135 3135 3136 3136 3137 3137 3140 3140 3141 3142